カタログに戻る

STARLINK-37747

運用中通信SSO
NORAD 69440·PAYLOAD·🇺🇸 United States

打ち上げ Jun 7, 2026 から Vandenberg Space Force Base

Loading…

次のパス (今後24時間)

TLE

最新Source: CelesTrak SupGP

元期: Sep 15, 2026, 03:58 UTC

1 69440C 26126W   26258.16576389 -.00020816  00000+0 -64632-3 0  2588
2 69440  97.2843 119.5267 0001881  93.1307 142.6620 15.33441839    13

AllMySatでSTARLINK-37747をリアルタイム追跡

Download on the App Store